ONEWEB-0386 (49312 NORAD) Tracking and Keplerian Element Data

This shows tracking and keplerian element data for the satellite.

Feedback or suggestion? Click here.




ElementValue
Catalog49312
NameONEWEB-0386
Epoch Orbit355
Epoch Day339.91667824
Epoch Year2021
RAAN275.0043
Inclination87.2053
Eccentricity0.0009084
Argument of Perigee80.2605
Mean Anonmoly77.8031
Mean Motion14.90991105
Decay Rate-0.00054178
L11 49312U 21090AK 21339.91667824 -.00054178 00000+0 -55322-2 0 9997
L22 49312 87.2053 275.0043 0009084 80.2605 77.8031 14.90991105 3557

Live tracking and technical data element details for ONEWEB-0386 (NORAD 49312). ONEWEB-0386 can be tracked NOW for your location showing map with azimuth and elevation plus other details from your city location.

Track the satellite on the map from your city or location and see movement details for azimuth, elevation, latitude, longitude, range, height, and movement on the map or in text.







IsCatalogInMostPopularTable: catalog: 49312, numindb: 10
Update: records affected: 1



GetName: 49312 ONEWEB-0386

Hit Count: updated at: Mon, 06 Dec 2021 15:43:27 GMT